Fort Smith, AR

10:57 AM CDT on July 28, 2017 (GMT -0500)
Fort Smith Regional

Weather History for KFSM - July, 2013

Change the Weather History Date:

Tuesday, July 30, 2013

  Actual Average Record
Temperature  
Mean Temperature 82 °F 83 °F  
Max Temperature 89 °F 94 °F 109 °F (1986)
Min Temperature 75 °F 72 °F 58 °F (1965)
Cooling Degree Days 17 18  
Month to date cooling degree days 513 520  
Year to date cooling degree days 1240 1149  
Since 1 June cooling degree days 966 905  
Growing Degree Days 32 (Base 50)    
Moisture  
Dew Point 73 °F    
Average Humidity 73    
Maximum Humidity 87    
Minimum Humidity 59    
Precipitation  
Precipitation 0.12 in 0.11 in 3.26 in (1996)
Month to date precipitation 3.95 3.20  
Year to date precipitation 31.03 26.67  
Sea Level Pressure  
Sea Level Pressure 30.00 in    
Wind  
Wind Speed 5 mph (SSE)    
Max Wind Speed 20 mph    
Max Gust Speed 28 mph    
Visibility 10 miles    
Events Rain    
T = Trace of Precipitation, MM = Missing Value Source: NWS Daily Summary

Daily Weather History Graph

Daily Weather History Graph

Search for Another Location

Airport or City:

Trip Planner

Search our weather history database for the weather conditions in past years. The results will help you decide how hot, cold, wet, or windy it might be!

Date:

Astronomy

Jul. 30, 2013 Rise Set
Actual Time 6:24 AM CDT 8:22 PM CDT
Civil Twilight 5:56 AM CDT 8:50 PM CDT
Nautical Twilight 5:22 AM CDT 9:24 PM CDT
Astronomical Twilight 4:46 AM CDT 10:00 PM CDT
Moon 12:41 AM CDT (7/30) 2:44 PM CDT (7/30)
Length of Visible Light 14h 53m
Length of Day
13h 57m
Last Quarter, 41% of the Moon is Illuminated
Jul 30
Last Quarter
Aug 6
New
Aug 14
First Quarter
Aug 20
Full
Aug 28
Last Quarter

Hourly Weather History & Observations

Time (CDT) Temp. Heat Index Dew Point Humidity Pressure Visibility Wind Dir Wind Speed Gust Speed Precip Events Conditions
12:53 AM 82.9 °F 88.0 °F 72.0 °F 69% 29.97 in 10.0 mi SE 3.5 mph - N/A   Mostly Cloudy
1:53 AM 81.0 °F 85.2 °F 72.0 °F 74% 29.97 in 10.0 mi East 5.8 mph - N/A   Overcast
2:53 AM 82.0 °F 86.7 °F 72.0 °F 71% 29.99 in 10.0 mi North 8.1 mph - N/A   Overcast
3:53 AM 80.1 °F 84.5 °F 73.9 °F 81% 30.01 in 10.0 mi Calm Calm - 0.02 in   Scattered Clouds
4:53 AM 78.1 °F - 73.9 °F 87% 30.04 in 6.0 mi SW 5.8 mph - 0.06 in Rain Light Rain
5:53 AM 75.9 °F - 69.1 °F 79% 30.01 in 10.0 mi South 13.8 mph - 0.04 in Rain Light Rain
6:53 AM 75.0 °F - 70.0 °F 84% 30.02 in 10.0 mi South 3.5 mph - 0.00 in   Partly Cloudy
7:53 AM 75.9 °F - 71.1 °F 85% 30.02 in 10.0 mi NE 3.5 mph - N/A   Clear
8:53 AM 75.9 °F - 70.0 °F 82% 30.04 in 10.0 mi Calm Calm - N/A   Scattered Clouds
9:53 AM 77.0 °F - 71.1 °F 82% 30.03 in 10.0 mi ESE 3.5 mph - 0.00 in   Scattered Clouds
10:53 AM 81.0 °F 84.9 °F 71.1 °F 72% 30.03 in 10.0 mi ESE 3.5 mph - N/A   Partly Cloudy
11:53 AM 86.0 °F 93.0 °F 73.0 °F 65% 30.03 in 10.0 mi SSW 9.2 mph - N/A   Scattered Clouds
12:53 PM 82.9 °F 88.0 °F 72.0 °F 69% 30.02 in 9.0 mi SSW 5.8 mph - 0.00 in Rain Light Rain
1:53 PM 82.9 °F 88.8 °F 73.0 °F 72% 30.01 in 10.0 mi South 5.8 mph - 0.00 in   Mostly Cloudy
2:53 PM 86.0 °F 92.2 °F 72.0 °F 63% 30.00 in 10.0 mi Variable 5.8 mph - N/A   Clear
3:53 PM 87.1 °F 93.6 °F 72.0 °F 61% 29.99 in 10.0 mi SSW 4.6 mph - N/A   Overcast
4:53 PM 87.1 °F 94.5 °F 73.0 °F 63% 29.98 in 10.0 mi South 4.6 mph - N/A   Overcast
5:53 PM 88.0 °F 96.5 °F 73.9 °F 63% 29.97 in 10.0 mi SSW 9.2 mph - N/A   Partly Cloudy
6:53 PM 87.1 °F 94.5 °F 73.0 °F 63% 29.96 in 10.0 mi SSW 6.9 mph - N/A   Partly Cloudy
7:53 PM 84.9 °F 92.1 °F 73.9 °F 69% 29.97 in 10.0 mi SSW 3.5 mph - N/A   Partly Cloudy
8:53 PM 84.0 °F 91.9 °F 75.0 °F 74% 29.96 in 10.0 mi SSE 4.6 mph - N/A   Clear
9:53 PM 82.9 °F 90.2 °F 75.0 °F 77% 29.98 in 10.0 mi Calm Calm - N/A   Mostly Cloudy
10:53 PM 82.9 °F 90.8 °F 75.9 °F 79% 29.98 in 10.0 mi NE 4.6 mph - 0.00 in   Overcast
11:53 PM 82.0 °F 90.2 °F 77.0 °F 85% 29.99 in 10.0 mi Calm Calm - N/A   Overcast